EW9027 Weather Reports


Display with metric or nautical units.
time (UTC)temp
F
wind
direction
speed
MPH
gust
MPH
rain 1hr
in
rain 24hr
in
rain mn
in
humidity
%
barometer
mb
20260905203050 62 19 0.0 3.0 0.00 0.28 0.28 59 1022.8
20260905201548 62 281 0.0 3.0 0.00 0.28 0.28 59 1022.6
20260905200049 62 281 0.0 5.0 0.00 0.28 0.28 59 1022.4
20260905194546 63 226 0.0 2.0 0.00 0.28 0.28 60 1022.2
20260905193041 63 264 0.0 1.0 0.00 0.28 0.28 60 1022.0
20260905191543 64 272 0.0 6.0 0.00 0.28 0.28 58 1021.7
20260905190050 64 314 0.0 6.0 0.00 0.28 0.28 58 1021.6
20260905184541 65 80 1.0 4.0 0.00 0.28 0.28 61 1021.4
20260905183033 65 243 0.0 3.0 0.00 0.28 0.28 64 1021.1
20260905181531 65 134 0.0 5.0 0.00 0.28 0.28 63 1020.8
20260905180029 65 286 0.0 5.0 0.00 0.28 0.28 62 1020.5
20260905174528 65 217 1.0 5.0 0.00 0.28 0.28 63 1020.2
20260905173025 66 279 0.0 2.0 0.00 0.28 0.28 63 1020.0
20260905171527 67 261 0.0 5.0 0.00 0.28 0.28 61 1019.8
20260905170025 67 210 2.0 7.0 0.00 0.28 0.28 60 1019.6
20260905164522 68 278 1.0 6.0 0.00 0.28 0.28 60 1019.5
20260905163022 68 269 2.0 8.0 0.00 0.28 0.28 58 1019.5
20260905161521 69 304 2.0 8.0 0.00 0.28 0.28 57 1019.4
20260905160024 70 93 2.0 10.0 0.00 0.28 0.28 55 1019.3
20260905154520 70 317 4.0 14.0 0.00 0.28 0.28 53 1019.1
20260905153025 70 217 7.0 17.0 0.00 0.28 0.28 53 1019.2
20260905151520 70 26 4.0 12.0 0.00 0.28 0.28 53 1019.4
20260905150020 70 199 4.0 11.0 0.00 0.28 0.28 53 1019.2
20260905144524 70 141 4.0 12.0 0.00 0.28 0.28 54 1019.1
20260905143017 71 266 4.0 14.0 0.00 0.28 0.28 53 1019.1
20260905141517 71 229 3.0 13.0 0.00 0.28 0.28 54 1019.2
20260905140016 71 70 2.0 10.0 0.00 0.28 0.28 54 1019.2
20260905134515 70 328 2.0 11.0 0.00 0.28 0.28 54 1019.3
20260905133015 69 347 4.0 13.0 0.00 0.28 0.28 55 1019.3
20260905131513 69 278 4.0 12.0 0.00 0.28 0.28 55 1019.4
20260905130015 69 216 5.0 16.0 0.00 0.28 0.28 54 1019.6
20260905124521 69 212 5.0 14.0 0.00 0.28 0.28 54 1019.6
20260905123013 69 327 4.0 10.0 0.00 0.28 0.28 55 1019.7
20260905121512 69 254 6.0 14.0 0.00 0.28 0.28 53 1019.7
20260905120013 69 74 3.0 12.0 0.00 0.28 0.28 56 1019.6
20260905114511 68 218 3.0 13.0 0.00 0.28 0.28 56 1019.6
20260905113008 68 295 5.0 15.0 0.00 0.28 0.28 57 1019.7
20260905111508 68 308 5.0 13.0 0.00 0.28 0.28 58 1019.8
20260905110008 68 307 4.0 14.0 0.00 0.28 0.28 58 1019.6
20260905104505 68 245 3.0 12.0 0.00 0.28 0.28 62 1019.6
20260905103005 67 279 3.0 12.0 0.00 0.28 0.28 65 1019.6
20260905101503 66 203 5.0 13.0 0.00 0.28 0.28 66 1019.6
20260905100002 65 250 1.0 11.0 0.00 0.28 0.28 71 1019.7
20260905094502 65 252 2.0 6.0 0.00 0.28 0.28 69 1019.7
20260905093101 64 328 2.0 11.0 0.00 0.28 0.28 71 1019.8
20260905093002 64 270 3.0 11.0 0.00 0.28 0.28 71 1019.9
20260905091600 63 289 3.0 9.0 0.00 0.28 0.28 72 1019.8
20260905090127 62 25 1.0 10.0 0.00 0.28 0.28 77 1019.6
20260905084555 61 264 4.0 11.0 0.00 0.28 0.28 76 1019.4
20260905083055 60 269 3.0 12.0 0.00 0.28 0.28 81 1019.4
20260905081559 59 8 4.0 10.0 0.00 0.28 0.28 82 1019.3
20260905080055 59 252 2.0 5.0 0.00 0.28 0.28 87 1019.0
20260905074602 57 275 1.0 5.0 0.00 0.28 0.28 88 1019.0
20260905073046 57 263 2.0 7.0 0.00 0.28 0.28 88 1018.7
20260905071544 57 274 0.0 8.0 0.00 0.28 0.28 91 1018.5
20260905070046 56 251 3.0 8.0 0.00 0.28 0.28 91 1018.3
20260905064542 56 271 1.0 6.0 0.00 0.28 0.28 91 1018.2
20260905063042 56 77 0.0 3.0 0.01 0.28 0.28 92 1018.5
20260905061541 55 284 0.0 2.0 0.03 0.28 0.28 91 1018.1
20260905060048 55 103 0.0 4.0 0.06 0.28 0.28 91 1018.4
20260905054541 54 211 2.0 9.0 0.10 0.28 0.28 91 1017.2
20260905053038 54 184 3.0 8.0 0.11 0.28 0.28 91 1017.6
20260905051538 55 213 1.0 4.0 0.10 0.25 0.25 89 1018.3
20260905050031 55 314 0.0 7.0 0.07 0.21 0.21 87 1018.2
20260905044536 57 297 1.0 4.0 0.04 0.18 0.18 88 1018.1
20260905043026 57 232 0.0 2.0 0.02 0.16 0.16 88 1017.5
20260905041525 57 217 0.0 3.0 0.02 0.15 0.15 89 1017.4
20260905040027 57 274 0.0 2.0 0.05 0.14 0.14 90 1017.7
20260905034521 57 242 0.0 1.0 0.05 0.14 0.14 91 1017.1
20260905033020 58 244 0.0 2.0 0.06 0.14 0.14 90 1016.9
20260905031519 58 239 0.0 1.0 0.09 0.13 0.13 89 1017.0
20260905030018 58 265 1.0 3.0 0.06 0.09 0.09 88 1016.9
20260905024517 58 68 0.0 1.0 0.06 0.09 0.09 87 1015.8
20260905023019 59 297 0.0 1.0 0.09 0.09 0.09 87 1016.6
20260905021512 59 277 0.0 1.0 0.05 0.05 0.05 85 1016.0
20260905020012 60 64 0.0 1.0 0.04 0.04 0.04 82 1015.3
20260905014507 60 49 0.0 2.0 0.04 0.04 0.04 81 1015.3
20260905013002 62 15 2.0 5.0 0.00 0.00 0.00 72 1015.3
20260905011502 63 275 2.0 8.0 0.00 0.00 0.00 71 1014.9
20260905010108 63 8 1.0 7.0 0.00 0.00 0.00 71 1015.1
20260905004557 63 328 3.0 13.0 0.00 0.00 0.00 72 1015.2
20260905003056 63 56 4.0 10.0 0.00 0.00 0.00 75 1015.2
20260905001556 64 23 6.0 21.0 0.00 0.00 0.00 74 1014.6
20260905000058 69 304 10.0 18.0 0.00 0.00 0.00 66 1013.8
20260904234544 71 274 2.0 6.0 0.00 0.00 0.00 64 1012.5
20260904233043 71 283 1.0 6.0 0.00 0.00 0.00 63 1012.5
20260904231548 71 271 1.0 5.0 0.00 0.00 0.00 63 1012.4
20260904230058 71 246 1.0 4.0 0.00 0.00 0.00 63 1012.2
20260904224539 70 241 0.0 4.0 0.00 0.00 0.00 63 1012.0
20260904223046 70 243 0.0 4.0 0.00 0.00 0.00 63 1011.9
20260904221535 70 226 1.0 4.0 0.00 0.00 0.00 64 1011.9
20260904220031 68 197 0.0 3.0 0.00 0.00 0.00 66 1012.0
20260904214532 68 218 0.0 2.0 0.00 0.00 0.00 68 1011.9
20260904213029 68 214 0.0 2.0 0.00 0.00 0.00 68 1011.7
20260904211528 68 229 0.0 1.0 0.00 0.00 0.00 68 1011.7
20260904210031 67 225 0.0 2.0 0.00 0.00 0.00 70 1011.7
20260904204527 67 224 0.0 3.0 0.00 0.00 0.00 70 1011.7